| time (UTC) | temp F | wind direction | speed knots | gust knots | rain 1hr in | rain 24hr in | rain mn in | humidity % | barometer mb |
| 20260504210254 | 60 | 270 | 0.0 | 0.9 | 0.00 | 0.08 | 0.08 | 95 | 1017.7 |
| 20260504205755 | 61 | 270 | 0.0 | 0.9 | 0.00 | 0.08 | 0.08 | 95 | 1017.7 |
| 20260504205257 | 61 | 270 | 0.0 | 0.0 | 0.00 | 0.08 | 0.08 | 95 | 1017.6 |
| 20260504204758 | 61 | 270 | 0.0 | 0.0 | 0.00 | 0.08 | 0.08 | 95 | 1017.5 |
| 20260504204259 | 61 | 270 | 0.0 | 0.0 | 0.00 | 0.08 | 0.08 | 95 | 1017.4 |
| 20260504203759 | 61 | 270 | 0.0 | 0.0 | 0.00 | 0.08 | 0.08 | 95 | 1017.5 |
| 20260504203300 | 61 | 270 | 0.0 | 0.0 | 0.00 | 0.08 | 0.08 | 95 | 1017.5 |
| 20260504202802 | 62 | 270 | 0.0 | 0.0 | 0.00 | 0.08 | 0.08 | 95 | 1017.4 |
| 20260504202304 | 62 | 270 | 0.0 | 0.9 | 0.00 | 0.08 | 0.08 | 95 | 1017.2 |
| 20260504201758 | 63 | 270 | 0.0 | 0.9 | 0.00 | 0.08 | 0.08 | 95 | 1017.1 |
| 20260504201258 | 63 | 270 | 0.0 | 0.9 | 0.00 | 0.08 | 0.08 | 94 | 1017.1 |
| 20260504200759 | 63 | 270 | 0.0 | 0.9 | 0.00 | 0.08 | 0.08 | 94 | 1017.0 |
| 20260504200300 | 63 | 270 | 0.9 | 1.7 | 0.00 | 0.08 | 0.08 | 94 | 1017.0 |
| 20260504195801 | 63 | 270 | 0.0 | 1.7 | 0.00 | 0.08 | 0.08 | 94 | 1016.8 |
| 20260504195304 | 63 | 270 | 0.0 | 1.7 | 0.00 | 0.08 | 0.08 | 94 | 1016.8 |
| 20260504194803 | 63 | 270 | 0.0 | 1.7 | 0.00 | 0.08 | 0.08 | 95 | 1016.9 |
| 20260504194304 | 63 | 270 | 0.0 | 0.9 | 0.00 | 0.08 | 0.08 | 95 | 1016.9 |
| 20260504193805 | 63 | 270 | 0.0 | 0.9 | 0.00 | 0.08 | 0.08 | 95 | 1016.8 |
| 20260504193305 | 63 | 270 | 0.0 | 0.9 | 0.00 | 0.08 | 0.08 | 95 | 1016.7 |
| 20260504192806 | 63 | 270 | 0.0 | 0.9 | 0.00 | 0.08 | 0.08 | 95 | 1016.6 |
| 20260504192308 | 63 | 270 | 0.0 | 0.9 | 0.00 | 0.08 | 0.08 | 95 | 1016.5 |
| 20260504191809 | 63 | 270 | 0.0 | 0.9 | 0.00 | 0.08 | 0.08 | 95 | 1016.4 |
| 20260504191310 | 63 | 270 | 0.0 | 0.9 | 0.00 | 0.08 | 0.08 | 95 | 1016.4 |
| 20260504190811 | 63 | 270 | 0.0 | 0.0 | 0.00 | 0.08 | 0.08 | 95 | 1016.3 |
| 20260504190311 | 63 | 270 | 0.0 | 0.0 | 0.00 | 0.08 | 0.08 | 95 | 1016.2 |
| 20260504185813 | 63 | 270 | 0.0 | 0.0 | 0.00 | 0.08 | 0.08 | 95 | 1016.1 |
| 20260504185314 | 63 | 270 | 0.0 | 0.0 | 0.00 | 0.08 | 0.08 | 95 | 1016.2 |
| 20260504184815 | 63 | 270 | 0.0 | 0.0 | 0.00 | 0.08 | 0.08 | 95 | 1016.2 |
| 20260504184315 | 63 | 270 | 0.0 | 0.0 | 0.00 | 0.08 | 0.08 | 95 | 1016.2 |
| 20260504183817 | 63 | 270 | 0.0 | 0.0 | 0.00 | 0.08 | 0.08 | 95 | 1016.2 |
| 20260504183318 | 63 | 270 | 0.0 | 0.0 | 0.00 | 0.08 | 0.08 | 95 | 1016.2 |
| 20260504182819 | 63 | 270 | 0.0 | 0.0 | 0.00 | 0.08 | 0.08 | 95 | 1016.3 |
| 20260504182320 | 63 | 270 | 0.0 | 0.0 | 0.00 | 0.08 | 0.08 | 95 | 1016.3 |
| 20260504181821 | 63 | 270 | 0.0 | 0.0 | 0.00 | 0.08 | 0.08 | 94 | 1016.2 |
| 20260504181321 | 63 | 270 | 0.0 | 0.9 | 0.00 | 0.08 | 0.08 | 95 | 1016.1 |
| 20260504180823 | 63 | 270 | 0.0 | 0.9 | 0.00 | 0.08 | 0.08 | 94 | 1016.1 |
| 20260504180324 | 63 | 270 | 0.0 | 0.0 | 0.00 | 0.08 | 0.08 | 94 | 1016.0 |
| 20260504175825 | 63 | 270 | 0.0 | 0.0 | 0.00 | 0.08 | 0.08 | 94 | 1016.1 |
| 20260504175326 | 63 | 315 | 0.0 | 0.9 | 0.00 | 0.08 | 0.08 | 95 | 1016.2 |
| 20260504174826 | 63 | 315 | 0.0 | 0.9 | 0.00 | 0.08 | 0.08 | 94 | 1016.1 |
| 20260504174328 | 63 | 315 | 0.0 | 0.9 | 0.01 | 0.08 | 0.08 | 95 | 1016.1 |
| 20260504173829 | 63 | 315 | 0.9 | 1.7 | 0.01 | 0.08 | 0.08 | 94 | 1015.8 |
| 20260504173330 | 63 | 315 | 0.9 | 1.7 | 0.01 | 0.08 | 0.08 | 94 | 1015.8 |
| 20260504172831 | 63 | 315 | 0.0 | 0.9 | 0.01 | 0.08 | 0.08 | 94 | 1015.7 |
| 20260504172332 | 63 | 315 | 0.0 | 0.0 | 0.01 | 0.08 | 0.08 | 94 | 1015.8 |
| 20260504171832 | 63 | 315 | 0.0 | 1.7 | 0.01 | 0.08 | 0.08 | 94 | 1015.9 |
| 20260504171333 | 63 | 315 | 0.0 | 0.9 | 0.01 | 0.08 | 0.08 | 94 | 1016.1 |
| 20260504170835 | 63 | 315 | 0.0 | 0.0 | 0.01 | 0.08 | 0.08 | 94 | 1016.2 |
| 20260504170336 | 63 | 315 | 0.0 | 0.9 | 0.01 | 0.08 | 0.08 | 94 | 1016.2 |
| 20260504160347 | 64 | 315 | 0.9 | 1.7 | 0.02 | 0.07 | 0.07 | 93 | 1016.3 |
| 20260504150856 | 64 | 315 | 0.9 | 1.7 | 0.00 | 0.05 | 0.05 | 92 | 1016.0 |
| 20260504150357 | 64 | 315 | 0.9 | 1.7 | 0.00 | 0.05 | 0.05 | 92 | 1016.1 |
| 20260504140907 | 64 | 315 | 0.0 | 0.0 | 0.00 | 0.05 | 0.05 | 92 | 1015.4 |
| 20260504140409 | 64 | 315 | 0.0 | 0.9 | 0.00 | 0.05 | 0.05 | 92 | 1015.4 |
| 20260504130421 | 64 | 293 | 0.0 | 0.9 | 0.00 | 0.05 | 0.05 | 92 | 1015.8 |
| 20260504110445 | 65 | 225 | 0.0 | 0.0 | 0.05 | 0.05 | 0.05 | 91 | 1016.6 |
| 20260504100453 | 68 | 315 | 0.0 | 1.7 | 0.00 | 0.00 | 0.00 | 76 | 1016.8 |
| 20260504081515 | 71 | 0 | 0.0 | 0.9 | 0.00 | 0.00 | 0.00 | 64 | 1015.7 |
| 20260504081016 | 71 | 0 | 0.0 | 0.0 | 0.00 | 0.00 | 0.00 | 63 | 1015.7 |
| 20260504080517 | 71 | 315 | 0.0 | 0.0 | 0.00 | 0.00 | 0.00 | 62 | 1015.7 |
| 20260504050553 | 78 | 158 | 0.0 | 0.9 | 0.00 | 0.00 | 0.00 | 50 | 1015.0 |
| 20260504045554 | 77 | 158 | 0.0 | 0.9 | 0.00 | 0.00 | 0.00 | 50 | 1014.9 |
| 20260504045056 | 77 | 225 | 0.0 | 0.0 | 0.00 | 0.00 | 0.00 | 50 | 1014.9 |
| 20260504044557 | 78 | 225 | 0.0 | 0.0 | 0.00 | 0.00 | 0.00 | 50 | 1014.9 |
| 20260504044058 | 77 | 225 | 0.0 | 0.9 | 0.00 | 0.00 | 0.00 | 50 | 1014.8 |
| 20260504043559 | 77 | 225 | 0.0 | 0.0 | 0.00 | 0.00 | 0.00 | 49 | 1014.9 |
| 20260504043059 | 78 | 203 | 0.0 | 0.9 | 0.00 | 0.00 | 0.00 | 49 | 1015.1 |
| 20260504042559 | 78 | 270 | 0.0 | 0.0 | 0.00 | 0.00 | 0.00 | 49 | 1015.1 |
| 20260504042101 | 78 | 248 | 0.0 | 0.9 | 0.00 | 0.00 | 0.00 | 48 | 1015.2 |
| 20260504041602 | 78 | 225 | 0.0 | 0.0 | 0.00 | 0.00 | 0.00 | 49 | 1015.1 |
| 20260504041102 | 78 | 225 | 0.0 | 1.7 | 0.00 | 0.00 | 0.00 | 50 | 1015.3 |
| 20260504040603 | 78 | 270 | 0.0 | 1.7 | 0.00 | 0.00 | 0.00 | 50 | 1015.2 |
| 20260504040103 | 77 | 225 | 0.0 | 0.9 | 0.00 | 0.00 | 0.00 | 51 | 1015.4 |
| 20260504035605 | 77 | 225 | 0.0 | 0.9 | 0.00 | 0.00 | 0.00 | 51 | 1015.4 |
| 20260504035106 | 77 | 225 | 0.0 | 0.0 | 0.00 | 0.00 | 0.00 | 51 | 1015.5 |
| 20260504034607 | 77 | 225 | 0.0 | 0.9 | 0.00 | 0.00 | 0.00 | 50 | 1015.5 |
| 20260504034107 | 78 | 225 | 0.0 | 0.9 | 0.00 | 0.00 | 0.00 | 51 | 1015.5 |
| 20260504033609 | 78 | 203 | 0.0 | 0.9 | 0.00 | 0.00 | 0.00 | 50 | 1015.4 |
| 20260504033110 | 78 | 270 | 0.9 | 1.7 | 0.00 | 0.00 | 0.00 | 50 | 1015.5 |
| 20260504032611 | 78 | 270 | 0.9 | 1.7 | 0.00 | 0.00 | 0.00 | 50 | 1015.5 |
| 20260504032112 | 78 | 225 | 0.0 | 0.9 | 0.00 | 0.00 | 0.00 | 50 | 1015.5 |
| 20260504031613 | 79 | 180 | 0.9 | 1.7 | 0.00 | 0.00 | 0.00 | 50 | 1015.6 |
| 20260504031113 | 79 | 225 | 1.7 | 4.3 | 0.00 | 0.00 | 0.00 | 48 | 1015.7 |
| 20260504030615 | 79 | 225 | 0.9 | 1.7 | 0.00 | 0.00 | 0.00 | 48 | 1015.8 |
| 20260504030116 | 79 | 180 | 0.0 | 0.9 | 0.00 | 0.00 | 0.00 | 46 | 1015.9 |
| 20260504025617 | 79 | 248 | 0.9 | 1.7 | 0.00 | 0.00 | 0.00 | 46 | 1015.9 |
| 20260504025117 | 80 | 225 | 0.9 | 1.7 | 0.00 | 0.00 | 0.00 | 45 | 1015.9 |
| 20260504024618 | 80 | 135 | 0.0 | 0.9 | 0.00 | 0.00 | 0.00 | 44 | 1016.0 |
| 20260504024119 | 81 | 270 | 0.0 | 0.9 | 0.00 | 0.00 | 0.00 | 41 | 1016.1 |
| 20260504023620 | 82 | 225 | 1.7 | 2.6 | 0.00 | 0.00 | 0.00 | 40 | 1016.1 |
| 20260504023121 | 82 | 225 | 0.0 | 1.7 | 0.00 | 0.00 | 0.00 | 39 | 1016.1 |
| 20260504022621 | 83 | 225 | 0.0 | 0.9 | 0.00 | 0.00 | 0.00 | 39 | 1016.2 |
| 20260504022122 | 83 | 225 | 0.0 | 1.7 | 0.00 | 0.00 | 0.00 | 41 | 1016.3 |
| 20260504021624 | 84 | 135 | 0.0 | 0.9 | 0.00 | 0.00 | 0.00 | 39 | 1016.4 |
| 20260504021125 | 85 | 135 | 0.0 | 0.9 | 0.00 | 0.00 | 0.00 | 37 | 1016.4 |
| 20260504020626 | 87 | 45 | 0.0 | 1.7 | 0.00 | 0.00 | 0.00 | 35 | 1016.6 |
| 20260504020127 | 86 | 315 | 0.9 | 1.7 | 0.00 | 0.00 | 0.00 | 40 | 1016.7 |
| 20260504015627 | 85 | 0 | 0.0 | 0.9 | 0.00 | 0.00 | 0.00 | 41 | 1016.8 |
| 20260504015128 | 84 | 270 | 0.9 | 1.7 | 0.00 | 0.00 | 0.00 | 40 | 1016.9 |
| 20260504014630 | 84 | 45 | 0.0 | 0.9 | 0.00 | 0.00 | 0.00 | 42 | 1016.9 |
| 20260504014131 | 83 | 0 | 0.0 | 1.7 | 0.00 | 0.00 | 0.00 | 43 | 1017.1 |
| 20260504013632 | 83 | 158 | 0.0 | 0.9 | 0.00 | 0.00 | 0.00 | 42 | 1017.3 |
| 20260504013132 | 81 | 315 | 0.0 | 0.9 | 0.00 | 0.00 | 0.00 | 44 | 1017.2 |
| 20260504012633 | 80 | 315 | 0.0 | 0.9 | 0.00 | 0.00 | 0.00 | 49 | 1017.3 |
| 20260504012135 | 80 | 315 | 0.9 | 1.7 | 0.00 | 0.00 | 0.00 | 44 | 1017.5 |
| 20260504011636 | 80 | 315 | 0.0 | 0.9 | 0.00 | 0.00 | 0.00 | 43 | 1017.4 |
| 20260504011137 | 81 | 315 | 0.0 | 0.9 | 0.00 | 0.00 | 0.00 | 48 | 1017.4 |
| 20260504010638 | 82 | 0 | 1.7 | 2.6 | 0.00 | 0.00 | 0.00 | 44 | 1017.4 |
| 20260504010139 | 82 | 45 | 0.0 | 0.9 | 0.00 | 0.00 | 0.00 | 45 | 1017.4 |
| 20260504005640 | 81 | 0 | 0.0 | 0.9 | 0.00 | 0.00 | 0.00 | 48 | 1017.5 |
| 20260504005141 | 80 | 0 | 1.7 | 4.3 | 0.00 | 0.00 | 0.00 | 50 | 1017.6 |
| 20260504004642 | 78 | 315 | 0.9 | 1.7 | 0.00 | 0.00 | 0.00 | 52 | 1017.5 |
| 20260504004143 | 77 | 315 | 1.7 | 1.7 | 0.00 | 0.00 | 0.00 | 54 | 1017.5 |
| 20260504003644 | 77 | 315 | 0.9 | 1.7 | 0.00 | 0.00 | 0.00 | 55 | 1017.6 |
| 20260504003145 | 76 | 0 | 0.0 | 1.7 | 0.00 | 0.00 | 0.00 | 54 | 1017.6 |
| 20260504002645 | 77 | 315 | 1.7 | 2.6 | 0.00 | 0.00 | 0.00 | 53 | 1017.7 |
| 20260504002146 | 77 | 0 | 1.7 | 2.6 | 0.00 | 0.00 | 0.00 | 52 | 1017.7 |
| 20260504001648 | 77 | 315 | 0.9 | 1.7 | 0.00 | 0.00 | 0.00 | 54 | 1017.7 |
| 20260504001149 | 78 | 0 | 0.9 | 1.7 | 0.00 | 0.00 | 0.00 | 53 | 1017.7 |
| 20260504000650 | 77 | 0 | 0.0 | 0.9 | 0.00 | 0.00 | 0.00 | 54 | 1017.7 |
| 20260504000150 | 77 | 315 | 0.9 | 1.7 | 0.00 | 0.00 | 0.00 | 57 | 1017.7 |
| 20260503235652 | 77 | 0 | 0.0 | 0.9 | 0.00 | 0.00 | 0.00 | 55 | 1017.8 |
| 20260503235153 | 76 | 315 | 0.0 | 0.9 | 0.00 | 0.00 | 0.00 | 59 | 1017.7 |
| 20260503234654 | 77 | 0 | 0.0 | 0.9 | 0.00 | 0.00 | 0.00 | 57 | 1017.7 |
| 20260503234155 | 76 | 0 | 0.0 | 1.7 | 0.00 | 0.00 | 0.00 | 58 | 1017.7 |
| 20260503233655 | 75 | 0 | 0.9 | 1.7 | 0.00 | 0.00 | 0.00 | 63 | 1017.8 |
| 20260503233156 | 73 | 315 | 0.9 | 1.7 | 0.00 | 0.00 | 0.00 | 67 | 1017.8 |
| 20260503232658 | 70 | 315 | 0.0 | 1.7 | 0.00 | 0.00 | 0.00 | 70 | 1017.8 |
| 20260503232159 | 70 | 315 | 1.7 | 2.6 | 0.00 | 0.00 | 0.00 | 70 | 1017.8 |
| 20260503231700 | 70 | 23 | 0.0 | 0.9 | 0.00 | 0.00 | 0.00 | 71 | 1017.9 |
| 20260503231201 | 69 | 0 | 0.0 | 0.9 | 0.00 | 0.00 | 0.00 | 74 | 1017.8 |
| 20260503230702 | 68 | 0 | 1.7 | 3.5 | 0.00 | 0.00 | 0.00 | 76 | 1017.9 |
| 20260503230157 | 68 | 315 | 1.7 | 2.6 | 0.00 | 0.00 | 0.00 | 77 | 1017.8 |
| 20260503225424 | 66 | 315 | 0.9 | 1.7 | 0.00 | 0.00 | 0.00 | 78 | 1017.7 |
| 20260503224926 | 67 | 315 | 0.9 | 1.7 | 0.00 | 0.00 | 0.00 | 78 | 1017.8 |
| 20260503224427 | 67 | 315 | 0.9 | 2.6 | 0.00 | 0.00 | 0.00 | 81 | 1017.8 |
| 20260503223928 | 67 | 315 | 0.0 | 1.7 | 0.00 | 0.00 | 0.00 | 82 | 1017.8 |
| 20260503223429 | 66 | 0 | 0.0 | 1.7 | 0.00 | 0.00 | 0.00 | 84 | 1017.7 |
| 20260503222930 | 66 | 315 | 0.9 | 1.7 | 0.00 | 0.00 | 0.00 | 86 | 1017.7 |
| 20260503222430 | 65 | 315 | 0.0 | 1.7 | 0.00 | 0.00 | 0.00 | 87 | 1017.7 |
| 20260503221932 | 65 | 315 | 0.0 | 0.9 | 0.00 | 0.00 | 0.00 | 88 | 1017.7 |
| 20260503221433 | 64 | 315 | 1.7 | 2.6 | 0.00 | 0.00 | 0.00 | 88 | 1017.7 |
| 20260503220934 | 64 | 0 | 0.0 | 1.7 | 0.00 | 0.00 | 0.00 | 89 | 1017.7 |
| 20260503220435 | 64 | 0 | 0.0 | 0.9 | 0.00 | 0.00 | 0.00 | 90 | 1017.8 |
| 20260503215936 | 63 | 0 | 0.0 | 0.9 | 0.00 | 0.00 | 0.00 | 90 | 1017.7 |
| 20260503215437 | 63 | 0 | 0.0 | 0.0 | 0.00 | 0.00 | 0.00 | 91 | 1017.8 |
| 20260503214938 | 62 | 0 | 0.0 | 0.9 | 0.00 | 0.00 | 0.00 | 92 | 1017.7 |
| 20260503214439 | 62 | 0 | 0.0 | 0.9 | 0.00 | 0.00 | 0.00 | 92 | 1017.6 |
| 20260503213940 | 62 | 23 | 0.0 | 0.9 | 0.00 | 0.00 | 0.00 | 92 | 1017.7 |
| 20260503213440 | 62 | 23 | 0.0 | 0.0 | 0.00 | 0.00 | 0.00 | 92 | 1017.5 |
| 20260503212941 | 61 | 23 | 0.0 | 0.0 | 0.00 | 0.00 | 0.00 | 92 | 1017.4 |
| 20260503212443 | 61 | 23 | 0.0 | 0.9 | 0.00 | 0.00 | 0.00 | 92 | 1017.4 |
| 20260503211944 | 61 | 23 | 0.0 | 0.0 | 0.00 | 0.00 | 0.00 | 92 | 1017.3 |
| 20260503211445 | 61 | 23 | 0.0 | 0.0 | 0.00 | 0.00 | 0.00 | 92 | 1017.2 |
| 20260503210946 | 61 | 23 | 0.0 | 0.9 | 0.00 | 0.00 | 0.00 | 92 | 1017.1 |
| 20260503210446 | 60 | 23 | 0.0 | 0.9 | 0.00 | 0.00 | 0.00 | 92 | 1017.0 |